FW7205 Weather Reports


time (UTC)temp
C
wind
direction
speed
KPH
gust
KPH
rain 1hr
cm
rain 24hr
cm
rain mn
cm
humidity
%
barometer
mb
20260506223055 22 340 0.0 6.4 0.00 0.00 0.00 75 1009.7
20260506221558 22 311 0.0 6.4 0.00 0.00 0.00 75 1009.6
20260506220056 22 0 1.6 8.0 0.00 0.00 0.00 76 1009.4
20260506214556 22 355 0.0 4.8 0.00 0.00 0.00 75 1009.1
20260506213110 23 0 0.0 6.4 0.00 0.00 0.00 74 1009.2
20260506211555 24 313 0.0 4.8 0.00 0.00 0.00 75 1009.2
20260506210056 25 321 0.0 4.8 0.00 0.00 0.00 78 1008.9
20260506204556 25 337 0.0 1.6 0.00 0.00 0.00 77 1008.8
20260506203053 26 0 0.0 3.2 0.00 0.00 0.00 77 1009.1
20260506201554 25 0 0.0 3.2 0.00 0.00 0.00 78 1009.1
20260506200053 25 0 0.0 4.8 0.00 0.00 0.00 79 1009.0
20260506194553 25 69 0.0 3.2 0.00 0.00 0.00 79 1009.4
20260506193057 24 0 0.0 3.2 0.00 0.00 0.00 79 1009.2
20260506191553 23 0 0.0 6.4 0.00 0.00 0.00 79 1009.2
20260506190053 23 0 0.0 3.2 0.00 0.00 0.00 81 1009.1
20260506184555 22 0 0.0 6.4 0.00 0.00 0.00 82 1009.5
20260506183100 21 0 0.0 4.8 0.00 0.00 0.00 83 1009.8
20260506181621 20 0 1.6 8.0 0.00 0.00 0.00 84 1010.0
20260506180054 19 71 1.6 6.4 0.00 0.00 0.00 86 1010.1
20260506174552 18 67 1.6 4.8 0.00 0.00 0.00 86 1010.6
20260506173100 20 355 0.0 4.8 0.00 0.00 0.00 84 1011.0
20260506171552 21 13 0.0 4.8 0.00 0.00 0.00 82 1011.2
20260506170055 23 0 1.6 8.0 0.00 0.00 0.00 79 1011.2
20260506164600 25 0 0.0 1.6 0.00 0.00 0.00 87 1011.1
20260506163103 25 0 0.0 1.6 0.00 0.00 0.00 87 1011.0
20260506161557 25 0 0.0 1.6 0.00 0.00 0.00 87 1010.8
20260506160108 25 0 0.0 1.6 0.00 0.00 0.00 89 1010.3
20260506154601 25 0 0.0 1.6 0.00 0.00 0.00 89 1009.7
20260506153110 25 0 0.0 1.6 0.00 0.00 0.00 90 1009.7
20260506151555 25 0 0.0 3.2 0.00 0.00 0.00 90 1009.7
20260506150059 25 0 0.0 3.2 0.00 0.00 0.00 90 1009.8
20260506144558 24 0 0.0 1.6 0.00 0.00 0.00 91 1009.8
20260506143057 24 0 0.0 4.8 0.00 0.00 0.00 91 1009.8
20260506141555 24 0 0.0 4.8 0.00 0.00 0.00 92 1009.2
20260506140054 23 0 0.0 3.2 0.00 0.00 0.00 92 1009.1
20260506134553 23 82 0.0 3.2 0.00 0.00 0.00 92 1008.9
20260506133053 23 0 0.0 1.6 0.00 0.00 0.00 92 1009.0
20260506131556 23 0 0.0 1.6 0.00 0.00 0.00 92 1009.1
20260506130056 23 0 0.0 0.0 0.00 0.00 0.00 92 1009.2
20260506124556 23 0 0.0 1.6 0.00 0.00 0.00 92 1008.7
20260506123055 23 0 0.0 0.0 0.00 0.00 0.00 92 1008.7
20260506121553 23 0 0.0 1.6 0.00 0.00 0.00 91 1008.9
20260506120057 23 0 0.0 1.6 0.00 0.00 0.00 91 1008.7
20260506114555 23 0 0.0 0.0 0.00 0.00 0.00 91 1008.7
20260506113055 23 0 0.0 0.0 0.00 0.00 0.00 91 1008.3
20260506111554 23 0 0.0 1.6 0.00 0.00 0.00 91 1008.3
20260506110054 23 0 0.0 1.6 0.00 0.00 0.00 91 1008.1
20260506104558 23 0 0.0 0.0 0.00 0.00 0.00 91 1008.0
20260506103057 23 0 0.0 0.0 0.00 0.00 0.00 91 1007.9
20260506101553 23 0 0.0 0.0 0.00 0.00 0.00 91 1007.9
20260506100055 23 0 0.0 1.6 0.00 0.00 0.00 91 1007.5
20260506094553 23 0 0.0 1.6 0.00 0.00 0.00 91 1007.3
20260506093052 23 0 0.0 4.8 0.00 0.00 0.00 91 1007.3
20260506091558 23 0 0.0 3.2 0.00 0.00 0.00 91 1007.4
20260506090100 23 0 0.0 4.8 0.00 0.00 0.00 91 1007.2
20260506084558 23 0 0.0 3.2 0.00 0.00 0.00 91 1007.1
20260506083056 23 0 0.0 4.8 0.00 0.00 0.00 91 1007.2
20260506081557 23 260 0.0 3.2 0.00 0.00 0.00 91 1007.2
20260506080104 23 0 0.0 6.4 0.00 0.00 0.00 91 1007.1
20260506073055 23 0 0.0 6.4 0.00 0.00 0.00 91 1007.3
20260506071604 23 234 1.6 6.4 0.00 0.00 0.00 90 1007.3
20260506070104 23 0 0.0 6.4 0.00 0.00 0.00 90 1007.3
20260506061554 23 0 0.0 6.4 0.00 0.00 0.00 89 1008.1
20260506050107 24 114 0.0 4.8 0.00 0.00 0.00 87 1007.7
20260506044558 24 158 0.0 9.7 0.00 0.00 0.00 87 1007.8
20260506043053 24 73 0.0 8.0 0.00 0.00 0.00 86 1007.9
20260506041552 24 0 0.0 4.8 0.00 0.00 0.00 86 1007.7
20260506040055 25 0 0.0 6.4 0.00 0.00 0.00 85 1007.4
20260506034610 25 116 1.6 6.4 0.00 0.00 0.00 85 1007.3
20260506033054 25 0 1.6 6.4 0.00 0.00 0.00 85 1007.2
20260506031556 25 0 0.0 4.8 0.00 0.00 0.00 84 1007.2
20260506030056 25 154 1.6 4.8 0.00 0.00 0.00 84 1006.8
20260506024612 25 217 0.0 4.8 0.00 0.00 0.00 83 1006.5
20260506023054 25 140 0.0 3.2 0.00 0.00 0.00 82 1006.4
20260506021553 25 94 0.0 4.8 0.00 0.00 0.00 82 1006.5
20260506020054 25 205 0.0 6.4 0.00 0.00 0.00 82 1006.3
20260506014553 26 236 0.0 6.4 0.00 0.00 0.00 81 1006.2
20260506013107 26 0 0.0 4.8 0.00 0.00 0.00 81 1005.9
20260506011606 26 0 0.0 3.2 0.00 0.00 0.00 80 1005.7
20260506010056 26 0 0.0 4.8 0.00 0.00 0.00 79 1005.2
20260506004555 26 277 0.0 6.4 0.00 0.00 0.00 78 1005.0
20260506003055 27 150 0.0 4.8 0.00 0.00 0.00 78 1005.0
20260506001554 27 154 0.0 4.8 0.00 0.00 0.00 78 1005.2
20260506000055 27 0 1.6 6.4 0.00 0.00 0.00 77 1005.2
20260505234557 27 0 1.6 8.0 0.00 0.00 0.00 77 1005.1
20260505233053 27 57 0.0 6.4 0.00 0.00 0.00 76 1004.9
20260505231552 27 0 0.0 6.4 0.00 0.00 0.00 76 1004.9
20260505230104 28 117 0.0 4.8 0.00 0.00 0.00 76 1005.0
20260505224553 28 0 1.6 9.7 0.00 0.00 0.00 75 1005.1